This demonstration page uses our WeatherBlox Daily Observations layout. Learn more.

Left ArrowRight Arrow

40.92501, -98.34201

Hourly Observations for April 11, 2021

Temp ( °F °C ) Dew Point ( °F °C ) Humidity (%) Winds ( mph kmh ) Pressure ( in mb ) Visibility ( mi km ) Precip ( " mm )
12:53 am 00:53 Clear 45 7.2 27 -2.8 49 49 S 7 11 29.67 1005 10 16.0934 0 0
1:53 am 01:53 Clear 43 6.1 28 -2.2 56 56 S 8 13 29.67 1005 10 16.0934 0 0
2:53 am 02:53 Clear 40 4.4 28 -2.2 63 63 S 7 11 29.65 1004 10 16.0934 0 0
3:53 am 03:53 Clear 41 5 27 -2.8 57 57 SSE 5 7 29.64 1004 10 16.0934 0 0
4:53 am 04:53 Clear 40 4.4 28 -2.2 63 63 SE 6 9 29.63 1003 10 16.0934 0 0
5:53 am 05:53 Clear 37 2.8 28 -2.2 70 70 ESE 8 13 29.62 1003 10 16.0934 0 0
6:53 am 06:53 Clear 37 2.8 28 -2.2 70 70 ESE 8 13 29.6 1002 10 16.0934 0 0
7:53 am 07:53 Sunny 41 5 29 -1.7 62 62 SSE 6 9 29.6 1002 10 16.0934 0 0
8:53 am 08:53 Sunny 47 8.3 30 -1.1 52 52 SSE 9 15 29.61 1003 10 16.0934 0 0
9:53 am 09:53 Sunny 51 10.6 31 -0.6 46 46 SW 7 11 29.62 1003 10 16.0934 0 0
10:53 am 10:53 Sunny 55 12.8 33 0.6 44 44 NW 12 19 29.64 1004 10 16.0934 0 0
11:53 am 11:53 Sunny 58 14.4 33 0.6 39 39 NW 22 35 29.67 1005 10 16.0934 0 0
12:53 pm 12:53 Sunny 61 16.1 35 1.7 38 38 NNW 25 41 29.66 1005 10 16.0934 0 0
1:53 pm 13:53 Sunny 62 16.7 35 1.7 37 37 NNW 22 35 29.69 1005 10 16.0934 0 0
2:53 pm 14:53 Sunny 62 16.7 35 1.7 37 37 NW 24 39 29.72 1006 10 16.0934 0 0
3:53 pm 15:53 Sunny 61 16.1 34 1.1 36 36 NW 29 46 29.73 1007 10 16.0934 0 0
4:53 pm 16:53 Sunny 60 15.6 34 1.1 38 38 NNW 31 50 29.72 1007 10 16.0934 0 0
5:53 pm 17:53 Sunny 58 14.4 33 0.6 39 39 NNW 33 54 29.75 1007 10 16.0934 0 0
6:53 pm 18:53 Sunny 56 13.3 29 -1.7 36 36 NNW 26 43 29.81 1010 10 16.0934 0 0
7:53 pm 19:53 Sunny 53 11.7 30 -1.1 41 41 N 18 30 29.85 1011 10 16.0934 0 0
8:53 pm 20:53 Clear 47 8.3 31 -0.6 54 54 N 9 15 29.87 1012 10 16.0934 0 0
9:53 pm 21:53 Clear 47 8.3 28 -2.2 48 48 NNW 12 19 29.9 1012 10 16.0934 0 0
10:53 pm 22:53 Clear 47 8.3 25 -3.9 42 42 NNW 16 26 29.93 1014 10 16.0934 0 0
11:53 pm 23:53 Clear 45 7.2 28 -2.2 52 52 NW 17 28 29.98 1015 10 16.0934 0 0

Powered by AerisWeather